Track COSMOS 1153 now! 10-day predictions COSMOS 1153 is classified as:
1 11680U 80007A 22148.90282839 .00000064 00000-0 51903-4 0 9991 2 11680 82.9326 186.3181 0038262 134.8583 39.7686 13.73674071119266